COSMOS 1448

导读 | 星芒AI

COSMOS 1448 是一颗由苏联于1983年4月13日发射的军用侦察卫星,搭载于联盟号火箭,任务涉及电子情报与光学侦察。该卫星属于“坦普尔”(Tsel) 系列,运行在近地轨道,具体参数未公开。由于其军事性质,相关信息高度机密。COSMOS 1448 在轨运行一段时间后失联,最终再入大气层销毁。该卫星体现了冷战时期苏联在空间侦察领域的技术能力与战略部署。

基本信息
目录编号:
13949
目录名称:
COSMOS 1448
国际标识:
1983-023A
轨道中心:
EARTH
卫星名称:
COSMOS 1448
卫星全名:
--
卫星状态:
在轨 (已飞行15601 天)
发射日期:
1983-03-30 UTC
国别 :
俄罗斯(独联体) (CIS)
星等 :
--
轨道信息
数据来源 国际轨道数据
星历时间: 2025-12-14T16:42:50+0800
23小时前
查看轨道信息
半长轴: 7355.82km
偏心率: 0.0028475
轨道倾角: 82.957°
近地点辐角 281.767°
升交点赤经 210.882°
平近点角 251.457°
近地点: 956.739km
远地点: 998.631km
周期: 104.642分钟
每日圈数: 13.761196
详细信息
使用方式:
暂无
2D轨道图
3D轨道图
轨道高度分析图
轨道倾角分析图
轨道综合分析图
查看轨道综合分析图